Location: *
(2.5500°S, 65.9667°W)
Time: 20:29:29
(UTC+00:00)

Vanguard 2 - All Passes

Search period start: 12 April 2024 00:00
Search period end: 22 April 2024 00:00
Orbit: 553 x 2917 km, 32.9° (Epoch: 12 April)

Date Brightness Start Highest point End Pass type
(mag) Time Alt. Az. Time Alt. Az. Time Alt. Az.
12 Apr - 00:53:36 10° SSE 00:55:01 10° SSE 00:56:32 10° SE visible
12 Apr - 02:56:10 10° SSW 03:06:05 41° SE 03:20:41 10° ENE night (unlit)
12 Apr - 05:04:12 10° WSW 05:17:38 80° NW 05:35:38 10° NE visible
12 Apr - 07:16:53 10° W 07:31:10 35° NNW 07:46:15 10° NNE visible
12 Apr - 09:38:59 10° NW 09:46:44 14° NNW 09:53:53 10° N visible
12 Apr - 14:14:57 10° N 14:17:48 12° NNE 14:20:18 10° NE daylight
12 Apr - 16:22:07 10° NW 16:28:26 41° NNE 16:32:46 10° ESE daylight
12 Apr - 18:32:57 10° W 18:36:25 21° SW 18:39:29 10° SSE daylight
13 Apr - 01:05:48 10° S 01:10:25 15° SSE 01:16:08 10° ESE visible
13 Apr - 03:10:38 10° SW 03:20:59 53° SE 03:36:40 10° ENE night (unlit)
13 Apr - 05:19:21 10° WSW 05:32:46 65° NW 05:50:27 10° NE visible
13 Apr - 07:33:29 10° W 07:46:48 28° NNW 08:00:35 10° NNE visible
13 Apr - 09:58:16 10° NNW 10:03:11 12° NNW 10:07:48 10° N visible
13 Apr - 14:27:57 10° NNW 14:33:27 17° NNE 14:37:41 10° ENE daylight
13 Apr - 16:36:46 10° NW 16:43:27 70° NNE 16:47:54 10° ESE daylight
13 Apr - 18:49:47 10° SW 18:51:17 11° SW 18:52:43 10° SSW daylight
14 Apr - 01:19:25 10° S 01:25:35 20° SE 01:33:53 10° ESE visible
14 Apr - 03:25:12 10° SW 03:35:51 68° SE 03:52:16 10° ENE visible
14 Apr - 05:34:44 10° WSW 05:48:00 52° NNW 06:05:06 10° NE visible
14 Apr - 07:50:37 10° WNW 08:02:40 23° NNW 08:14:53 10° NNE visible
14 Apr - 10:18:16 10° NNW 10:19:48 10° N 10:21:17 10° N daylight
14 Apr - 12:34:58 10° N 12:36:17 10° N 12:37:33 10° NNE daylight
14 Apr - 14:41:47 10° NNW 14:48:58 25° NNE 14:53:58 10° ENE daylight
14 Apr - 16:51:45 10° WNW 16:58:18 68° SW 17:02:42 10° SE daylight
15 Apr - 01:33:24 10° SSW 01:40:32 27° SE 01:50:54 10° E visible
15 Apr - 03:39:55 10° SW 03:50:45 85° SE 04:07:34 10° NE visible
15 Apr - 05:50:26 10° W 06:03:24 42° NNW 06:19:37 10° NE visible
15 Apr - 08:08:17 10° WNW 08:18:46 18° NNW 08:29:13 10° NNE visible
15 Apr - 12:47:02 10° NNW 12:52:21 14° NNE 12:56:44 10° NE daylight
15 Apr - 14:56:01 10° NW 15:04:19 36° NNE 15:09:40 10° E daylight
15 Apr - 17:07:05 10° WNW 17:13:01 39° SW 17:17:12 10° SSE daylight
16 Apr - 01:47:36 10° SSW 01:55:22 37° SE 02:07:21 10° E visible
16 Apr - 03:54:49 10° WSW 04:05:44 77° NW 04:22:35 10° NE visible
16 Apr - 06:06:29 10° W 06:18:56 34° NNW 06:34:02 10° NNE visible
16 Apr - 08:26:27 10° NW 08:35:08 15° NNW 08:43:39 10° NNE visible
16 Apr - 10:50:46 10° N 10:53:07 10° N 10:55:20 10° NNE daylight
16 Apr - 13:00:38 10° NNW 13:08:12 18° NNE 13:13:55 10° ENE daylight
16 Apr - 15:10:31 10° NW 15:19:29 53° NNE 15:24:59 10° ESE daylight
16 Apr - 17:22:54 10° W 17:27:42 23° SW 17:31:22 10° SSE daylight
17 Apr - 02:01:57 10° SW 02:10:06 50° SE 02:23:19 10° ENE night (unlit)
17 Apr - 04:09:55 10° WSW 04:20:52 61° NNW 04:37:22 10° NE visible
17 Apr - 06:22:58 10° WNW 06:34:42 27° NNW 06:48:23 10° NNE visible
17 Apr - 08:44:50 10° NW 08:51:44 13° N 08:58:24 10° NNE visible
17 Apr - 11:04:29 10° NNW 11:09:36 12° N 11:14:10 10° NNE daylight
17 Apr - 13:14:36 10° NNW 13:23:53 25° NNE 13:30:21 10° ENE daylight
17 Apr - 15:25:17 10° NW 15:34:29 81° NE 15:39:59 10° ESE daylight
17 Apr - 17:39:28 10° WSW 17:42:25 14° SW 17:44:56 10° S daylight
18 Apr - 00:11:50 10° S 00:15:45 15° SE 00:20:39 10° ESE visible
18 Apr - 02:16:28 10° SW 02:24:51 66° SE 02:38:54 10° ENE night (unlit)
18 Apr - 04:25:16 10° WSW 04:36:08 48° NNW 04:51:59 10° NE visible
18 Apr - 06:39:56 10° WNW 06:50:40 22° NNW 07:02:45 10° NNE visible
18 Apr - 09:02:50 10° NNW 09:08:28 12° N 09:13:53 10° NNE visible
18 Apr - 11:18:26 10° NNW 11:25:53 15° NNE 11:32:07 10° NE daylight
18 Apr - 13:28:48 10° NNW 13:39:23 33° NNE 13:46:14 10° E daylight
18 Apr - 15:40:21 10° WNW 15:49:18 68° SW 15:54:43 10° SE daylight
19 Apr - 00:25:23 10° S 00:30:36 22° SE 00:37:52 10° E visible
19 Apr - 02:31:08 10° SW 02:39:41 87° SE 02:54:09 10° NE night (unlit)
19 Apr - 04:40:56 10° W 04:51:34 38° NNW 05:06:27 10° NE visible
19 Apr - 06:57:24 10° NW 07:06:53 18° NNW 07:17:10 10° NNE visible
19 Apr - 09:19:36 10° NNW 09:25:14 12° N 09:30:35 10° NNE visible
19 Apr - 11:32:29 10° NNW 11:41:58 19° NNE 11:49:21 10° ENE daylight
19 Apr - 13:43:13 10° NW 13:54:42 46° NNE 14:01:44 10° E daylight
19 Apr - 15:55:45 10° WNW 16:03:59 44° SW 16:09:11 10° SSE daylight
20 Apr - 00:39:22 10° SSW 00:45:18 32° SE 00:54:20 10° E visible
20 Apr - 02:46:00 10° WSW 02:54:38 73° NNW 03:09:07 10° NE night (unlit)
20 Apr - 04:56:57 10° W 05:07:11 30° NNW 05:20:49 10° NNE visible
20 Apr - 07:15:16 10° NW 07:23:20 15° NNW 07:31:50 10° NNE visible
20 Apr - 09:35:03 10° NNW 09:41:55 13° N 09:48:14 10° NNE visible
20 Apr - 11:46:37 10° NNW 11:57:49 24° NNE 12:06:01 10° ENE daylight
20 Apr - 13:57:50 10° NW 14:09:52 63° NNE 14:16:55 10° ESE daylight
20 Apr - 16:11:34 10° W 16:18:36 29° SW 16:23:24 10° SSE daylight
21 Apr - 00:53:37 10° SSW 00:59:56 45° SE 01:10:15 10° ENE visible
21 Apr - 03:01:05 10° WSW 03:09:44 55° NNW 03:23:50 10° NE visible
21 Apr - 05:13:24 10° WNW 05:22:58 24° NNW 05:35:07 10° NNE visible
21 Apr - 07:33:10 10° NNW 07:39:59 13° N 07:46:58 10° NNE visible
21 Apr - 09:49:47 10° NNW 09:58:25 15° NNE 10:06:05 10° NE visible
21 Apr - 12:00:52 10° NNW 12:13:28 32° NNE 12:22:10 10° E daylight
21 Apr - 14:12:42 10° NW 14:24:49 87° NE 14:31:49 10° ESE daylight
21 Apr - 16:27:57 10° W 16:33:15 19° SW 16:37:15 10° S daylight
21 Apr - 23:05:57 10° SE 23:06:18 10° SE 23:06:39 10° SE visible
